| time (UTC) | temp F | wind direction | speed MPH | gust MPH | rain 1hr in | rain 24hr in | rain mn in | humidity % | barometer mb |
| 20260507191544 | 64 | 143 | 9.0 | 12.0 | 0.00 | 0.05 | 0.00 | 83 | 1015.2 |
| 20260507190039 | 64 | 146 | 11.0 | 13.0 | 0.00 | 0.05 | 0.00 | 83 | 1015.1 |
| 20260507184540 | 64 | 143 | 10.0 | 13.0 | 0.00 | 0.05 | 0.00 | 84 | 1015.2 |
| 20260507183039 | 64 | 139 | 10.0 | 14.0 | 0.00 | 0.15 | 0.00 | 83 | 1014.9 |
| 20260507181536 | 64 | 133 | 11.0 | 15.0 | 0.00 | 0.15 | 0.00 | 79 | 1014.8 |
| 20260507180038 | 64 | 139 | 10.0 | 13.0 | 0.00 | 0.15 | 0.00 | 77 | 1014.7 |
| 20260507174541 | 65 | 138 | 11.0 | 14.0 | 0.00 | 0.15 | 0.00 | 73 | 1014.5 |
| 20260507173131 | 65 | 134 | 10.0 | 13.0 | 0.00 | 0.16 | 0.00 | 73 | 1014.5 |
| 20260507171529 | 65 | 141 | 11.0 | 13.0 | 0.00 | 0.16 | 0.00 | 70 | 1014.5 |
| 20260507170029 | 65 | 138 | 11.0 | 13.0 | 0.00 | 0.16 | 0.00 | 72 | 1014.3 |
| 20260507164526 | 65 | 130 | 9.0 | 11.0 | 0.00 | 0.16 | 0.00 | 69 | 1014.4 |
| 20260507163025 | 65 | 112 | 9.0 | 11.0 | 0.00 | 0.17 | 0.00 | 67 | 1014.2 |
| 20260507161527 | 65 | 117 | 9.0 | 11.0 | 0.00 | 0.17 | 0.00 | 66 | 1014.1 |
| 20260507160025 | 65 | 110 | 9.0 | 11.0 | 0.00 | 0.17 | 0.00 | 67 | 1014.1 |
| 20260507154530 | 65 | 112 | 8.0 | 11.0 | 0.00 | 0.17 | 0.00 | 68 | 1014.0 |
| 20260507153035 | 65 | 108 | 8.0 | 11.0 | 0.00 | 0.19 | 0.00 | 68 | 1014.2 |
| 20260507151521 | 65 | 124 | 8.0 | 10.0 | 0.00 | 0.19 | 0.00 | 68 | 1014.3 |
| 20260507150021 | 65 | 124 | 9.0 | 12.0 | 0.00 | 0.19 | 0.00 | 70 | 1014.3 |
| 20260507144550 | 65 | 119 | 10.0 | 13.0 | 0.00 | 0.19 | 0.00 | 65 | 1014.3 |
| 20260507143100 | 65 | 120 | 9.0 | 13.0 | 0.00 | 0.19 | 0.00 | 69 | 1014.4 |
| 20260507141548 | 65 | 128 | 9.0 | 12.0 | 0.00 | 0.19 | 0.00 | 69 | 1014.5 |
| 20260507140046 | 65 | 120 | 10.0 | 12.0 | 0.00 | 0.19 | 0.00 | 68 | 1014.4 |
| 20260507134546 | 65 | 111 | 8.0 | 10.0 | 0.00 | 0.19 | 0.00 | 69 | 1014.4 |
| 20260507133044 | 65 | 103 | 7.0 | 8.0 | 0.00 | 0.19 | 0.00 | 70 | 1014.5 |
| 20260507131558 | 65 | 93 | 6.0 | 8.0 | 0.00 | 0.19 | 0.00 | 71 | 1014.6 |
| 20260507130042 | 65 | 83 | 6.0 | 7.0 | 0.00 | 0.19 | 0.00 | 71 | 1014.6 |
| 20260507124539 | 65 | 80 | 6.0 | 8.0 | 0.00 | 0.19 | 0.00 | 71 | 1014.6 |
| 20260507123039 | 65 | 73 | 7.0 | 8.0 | 0.00 | 0.19 | 0.00 | 71 | 1014.7 |
| 20260507121533 | 65 | 66 | 6.0 | 8.0 | 0.00 | 0.19 | 0.00 | 69 | 1014.7 |
| 20260507120033 | 65 | 68 | 7.0 | 8.0 | 0.00 | 0.19 | 0.00 | 70 | 1014.8 |
| 20260507114531 | 65 | 69 | 6.0 | 8.0 | 0.00 | 0.19 | 0.00 | 72 | 1014.8 |
| 20260507113031 | 65 | 68 | 6.0 | 7.0 | 0.00 | 0.19 | 0.00 | 69 | 1014.8 |
| 20260507111602 | 64 | 68 | 5.0 | 7.0 | 0.00 | 0.19 | 0.00 | 68 | 1014.9 |
| 20260507104557 | 64 | 63 | 5.0 | 7.0 | 0.00 | 0.19 | 0.00 | 69 | 1015.1 |
| 20260507103057 | 64 | 65 | 6.0 | 7.0 | 0.00 | 0.19 | 0.00 | 65 | 1015.1 |
| 20260507101557 | 64 | 61 | 6.0 | 8.0 | 0.00 | 0.19 | 0.00 | 66 | 1015.2 |
| 20260507100055 | 64 | 64 | 5.0 | 6.0 | 0.00 | 0.19 | 0.00 | 65 | 1015.3 |
| 20260507094552 | 64 | 62 | 5.0 | 6.0 | 0.00 | 0.19 | 0.00 | 62 | 1015.3 |
| 20260507093055 | 64 | 68 | 4.0 | 6.0 | 0.00 | 0.19 | 0.00 | 60 | 1015.3 |
| 20260507091550 | 64 | 65 | 4.0 | 6.0 | 0.00 | 0.19 | 0.00 | 59 | 1015.3 |
| 20260507090049 | 64 | 101 | 4.0 | 4.0 | 0.00 | 0.19 | 0.00 | 64 | 1015.2 |
| 20260507084547 | 64 | 79 | 3.0 | 4.0 | 0.00 | 0.19 | 0.00 | 62 | 1015.0 |
| 20260507083044 | 64 | 65 | 4.0 | 5.0 | 0.00 | 0.19 | 0.00 | 62 | 1014.9 |
| 20260507081543 | 64 | 66 | 3.0 | 3.0 | 0.00 | 0.19 | 0.00 | 64 | 1014.8 |
| 20260507080042 | 65 | 86 | 1.0 | 4.0 | 0.00 | 0.19 | 0.00 | 52 | 1014.6 |
| 20260507074539 | 65 | 64 | 2.0 | 4.0 | 0.00 | 0.19 | 0.00 | 53 | 1014.7 |
| 20260507073038 | 65 | 171 | 2.0 | 5.0 | 0.00 | 0.20 | 0.00 | 58 | 1014.6 |
| 20260507073005 | 65 | 184 | 2.0 | 5.0 | 0.00 | 0.20 | 0.00 | 60 | 1014.6 |
| 20260507071558 | 65 | 244 | 1.0 | 5.0 | 0.00 | 0.20 | 0.00 | 59 | 1014.7 |
| 20260507070032 | 64 | 270 | 2.0 | 7.0 | 0.00 | 0.20 | 0.00 | 62 | 1014.7 |
| 20260507064527 | 64 | 268 | 3.0 | 7.0 | 0.00 | 0.20 | 0.00 | 61 | 1014.5 |
| 20260507063057 | 63 | 248 | 3.0 | 6.0 | 0.00 | 0.20 | 0.00 | 65 | 1014.5 |
| 20260507061556 | 62 | 272 | 2.0 | 5.0 | 0.00 | 0.20 | 0.00 | 67 | 1014.3 |
| 20260507060044 | 61 | 241 | 2.0 | 4.0 | 0.00 | 0.20 | 0.00 | 72 | 1014.1 |
| 20260507054541 | 60 | 276 | 2.0 | 5.0 | 0.00 | 0.20 | 0.00 | 73 | 1014.1 |
| 20260507053105 | 59 | 260 | 2.0 | 4.0 | 0.00 | 0.23 | 0.00 | 74 | 1014.0 |
| 20260507051542 | 58 | 257 | 1.0 | 4.0 | 0.00 | 0.23 | 0.00 | 75 | 1013.9 |
| 20260507050036 | 56 | 262 | 1.0 | 4.0 | 0.00 | 0.23 | 0.00 | 77 | 1013.8 |
| 20260507044531 | 55 | 217 | 1.0 | 4.0 | 0.00 | 0.23 | 0.00 | 78 | 1013.4 |
| 20260507043028 | 55 | 212 | 2.0 | 3.0 | 0.00 | 0.23 | 0.00 | 78 | 1013.3 |
| 20260507041528 | 55 | 229 | 1.0 | 3.0 | 0.00 | 0.23 | 0.00 | 79 | 1013.1 |
| 20260507040100 | 55 | 243 | 0.0 | 2.0 | 0.00 | 0.23 | 0.00 | 81 | 1013.0 |
| 20260507034555 | 56 | 225 | 0.0 | 2.0 | 0.00 | 0.23 | 0.00 | 77 | 1013.0 |
| 20260507033051 | 57 | 259 | 1.0 | 4.0 | 0.00 | 0.23 | 0.00 | 76 | 1013.0 |
| 20260507031551 | 57 | 276 | 0.0 | 3.0 | 0.00 | 0.23 | 0.00 | 77 | 1012.8 |
| 20260507030047 | 57 | 266 | 0.0 | 2.0 | 0.00 | 0.23 | 0.00 | 77 | 1012.9 |
| 20260507024545 | 57 | 252 | 0.0 | 4.0 | 0.00 | 0.23 | 0.00 | 76 | 1012.8 |
| 20260507023042 | 57 | 252 | 1.0 | 3.0 | 0.00 | 0.23 | 0.00 | 78 | 1012.9 |
| 20260507021543 | 57 | 279 | 1.0 | 3.0 | 0.00 | 0.23 | 0.00 | 78 | 1013.0 |
| 20260507020041 | 58 | 241 | 0.0 | 3.0 | 0.00 | 0.23 | 0.00 | 78 | 1012.9 |
| 20260507014547 | 58 | 255 | 2.0 | 7.0 | 0.00 | 0.23 | 0.00 | 76 | 1013.0 |
| 20260507013031 | 58 | 262 | 3.0 | 7.0 | 0.00 | 0.23 | 0.19 | 76 | 1012.7 |
| 20260507011538 | 58 | 222 | 3.0 | 8.0 | 0.00 | 0.23 | 0.19 | 78 | 1012.6 |
| 20260507010112 | 58 | 241 | 4.0 | 8.0 | 0.00 | 0.23 | 0.19 | 79 | 1012.6 |
| 20260507004615 | 58 | 210 | 3.0 | 8.0 | 0.00 | 0.23 | 0.19 | 78 | 1012.6 |
| 20260507003029 | 58 | 148 | 2.0 | 7.0 | 0.00 | 0.23 | 0.19 | 78 | 1012.7 |
| 20260507001528 | 58 | 223 | 4.0 | 9.0 | 0.00 | 0.23 | 0.19 | 79 | 1012.6 |
| 20260507000026 | 58 | 207 | 3.0 | 9.0 | 0.01 | 0.23 | 0.19 | 80 | 1012.8 |
| 20260506234525 | 58 | 224 | 1.0 | 5.0 | 0.01 | 0.23 | 0.19 | 80 | 1013.0 |
| 20260506233025 | 58 | 242 | 2.0 | 5.0 | 0.01 | 0.23 | 0.19 | 81 | 1013.2 |
| 20260506231523 | 58 | 258 | 1.0 | 7.0 | 0.01 | 0.23 | 0.19 | 81 | 1013.2 |
| 20260506230020 | 59 | 256 | 3.0 | 7.0 | 0.00 | 0.22 | 0.18 | 79 | 1013.3 |
| 20260506224520 | 59 | 233 | 3.0 | 6.0 | 0.00 | 0.22 | 0.18 | 81 | 1013.3 |
| 20260506223018 | 59 | 293 | 1.0 | 5.0 | 0.00 | 0.22 | 0.18 | 85 | 1013.3 |
| 20260506221517 | 59 | 230 | 0.0 | 1.0 | 0.00 | 0.22 | 0.18 | 85 | 1013.2 |
| 20260506220028 | 59 | 228 | 0.0 | 4.0 | 0.00 | 0.22 | 0.18 | 84 | 1013.1 |
| 20260506214512 | 59 | 288 | 1.0 | 5.0 | 0.00 | 0.22 | 0.18 | 83 | 1013.1 |
| 20260506213012 | 59 | 257 | 2.0 | 9.0 | 0.00 | 0.22 | 0.18 | 82 | 1013.2 |
| 20260506211511 | 59 | 298 | 2.0 | 8.0 | 0.00 | 0.22 | 0.18 | 82 | 1012.9 |
| 20260506210012 | 60 | 259 | 5.0 | 12.0 | 0.01 | 0.22 | 0.18 | 79 | 1013.0 |
| 20260506204508 | 60 | 227 | 3.0 | 7.0 | 0.01 | 0.22 | 0.18 | 83 | 1012.9 |
| 20260506203008 | 60 | 229 | 2.0 | 9.0 | 0.03 | 0.22 | 0.18 | 85 | 1012.9 |
| 20260506201506 | 59 | 198 | 4.0 | 7.0 | 0.03 | 0.22 | 0.18 | 86 | 1012.9 |
| 20260506200004 | 59 | 252 | 0.0 | 4.0 | 0.03 | 0.21 | 0.17 | 86 | 1012.7 |
| 20260506194503 | 60 | 206 | 1.0 | 8.0 | 0.03 | 0.21 | 0.17 | 84 | 1012.4 |
| 20260506193059 | 60 | 233 | 2.0 | 5.0 | 0.01 | 0.19 | 0.15 | 85 | 1012.4 |